COSMOS 2485 (747)

Last updated on Thu Apr 11 2024 01:03:06 GMT+0100 (British Summer Time)

1 39155U 13019A 24101.17168536 .00000035 00000+0 00000+0 0 9998 2 39155 65.0167 100.4695 0024590 237.9974 121.7745 2.13101755 85270
UTC large
Height (km)
Speed (km/s)
/
Latitude / Longitude
Inclination (degrees)
Orbital Period (minutes)
Azimuth
Elevation
Range (km)
Doppler Factor

Next 0 passes for location: London (51.5072 / 0.1276)

Sorry there are no passes over London.